[[{"header":{"parameterUnit":"m.s-1","parameterCategory":1,"la1":30.2991,"la2":30.254,"lo1":-89.0895,"lo2":-89.0444,"dy":0.0017,"dx":0.0017,"nx":28,"ny":28,"refTime":"2023-08-12T09:00:00:Z","depth":0,"parameterNumber":2,"parameterNumberName":"U-component_of_WINDS"},"data":[0,0,0,0,0,0,0,0,0,0,0,0,0,0,0,0,0,0,0,0,0,0,0,0,0,0,0,0,0,0,0,0,0,0,0,0,0,0,0,0,0,0,0,0,0,0,0,0,0,0,0,0,0,0,0,0,0,0,1.8448,1.8448,0,1.8462,1.8462,1.8463,1.8416,1.8414,1.8413,1.8411,1.8428,1.843,1.8432,0,0,0,0,0,0,0,0,0,0,0,0,0,1.8379,1.838,1.8448,1.8448,1.8448,1.8462,1.8462,1.8463,1.8416,1.8414,1.8412,1.8411,1.8428,1.843,1.8432,0,0,0,0,0,0,0,0,0,0,0,0,0,1.8403,1.8381,1.8448,1.8426,1.8425,1.8462,1.8462,1.8463,1.8416,1.8414,1.8412,1.841,1.8427,1.843,1.8432,1.8492,0,0,1.844,1.8442,0,0,0,0,0,0,0,0,1.8402,1.8405,1.8429,1.8428,1.8426,1.8435,1.8444,1.8472,1.8417,1.842,1.8411,1.8409,1.8432,1.8434,1.8442,1.8492,1.8493,1.8441,1.8442,1.8443,1.8444,0,0,0,0,0,0,0,1.84,1.8404,1.8453,1.843,1.8428,1.8416,1.8417,1.8449,1.8438,1.8419,1.8416,1.8418,1.8431,1.8439,1.8442,1.8493,1.8441,1.8443,1.8445,1.8446,1.859,1.8592,0,0,0,0,0,0,1.8401,1.8403,1.8453,1.8454,1.8408,1.8419,1.842,1.8434,1.8437,1.8436,1.842,1.8416,1.8436,1.8439,1.8442,1.851,1.8443,1.8446,1.8447,1.8588,1.859,1.8593,0,0,0,0,0,0,1.84,1.8406,1.8452,1.8428,1.8433,1.8422,1.8439,1.8436,1.8444,1.8438,1.8436,1.8431,1.8434,1.8439,1.8479,1.851,1.8447,1.8449,1.8585,1.8588,1.8591,1.8646,0,0,0,0,0,0,1.8398,1.8406,1.8428,1.8429,1.8434,1.8489,1.8441,1.8437,1.8449,1.8443,1.8447,1.8446,1.8433,1.8475,1.8481,1.8512,1.8452,1.8582,1.8586,1.859,1.8642,1.8651,1.8659,0,0,0,0,0,1.8396,1.8445,1.843,1.8436,1.8462,1.8491,1.8494,1.8478,1.8451,1.8474,1.8469,1.8446,1.8505,1.848,1.8486,1.8518,1.858,1.8585,1.859,1.8638,1.8649,1.8659,0,0,0,0,0,0,1.845,1.8444,1.8428,1.8478,1.8485,1.8483,1.8511,1.8491,1.8506,1.8501,1.848,1.8481,1.8525,1.8526,1.8497,1.8574,1.8538,1.8545,1.8572,1.8583,1.8592,1.859,1.8454,0,0,0,0,0,1.8467,1.8491,1.8485,1.853,1.8534,1.8522,1.8534,1.852,1.8527,1.853,1.8528,1.8536,1.8556,1.857,1.8588,1.8642,1.8641,1.8667,1.8676,1.8683,1.8689,1.8714,1.8725,1.8609,1.8609,1.8609,0,0,1.8505,1.8504,1.8521,1.8541,1.8544,1.8568,1.8525,1.8553,1.857,1.8534,1.8571,1.857,1.8577,1.8623,1.8644,1.8626,1.872,1.8689,1.8695,1.8697,1.872,1.8731,1.8741,1.8612,1.8612,1.8611,0,0,1.8584,1.8587,1.8623,1.8627,1.8632,1.8624,1.8632,1.8632,1.863,1.8666,1.8639,1.8659,1.8695,1.87,1.8708,1.8785,1.8764,1.8792,1.8838,1.8863,1.8872,1.888,1.8906,1.8915,1.8798,1.8798,1.8798,0,1.8629,1.8664,1.8645,1.8673,1.8682,1.8649,1.8685,1.869,1.8702,1.8708,1.8687,1.8729,1.8732,1.8777,1.8796,1.8804,1.8812,1.8791,1.8872,1.888,1.8887,1.8911,1.8921,1.8801,1.8801,1.8801,1.88,0,1.8718,1.8743,1.8772,1.8781,1.8793,1.8826,1.8811,1.8825,1.881,1.8803,1.8839,1.8841,1.8857,1.8868,1.8854,1.8911,1.8899,1.8876,1.8839,1.8902,1.8924,1.8933,1.8806,1.8805,1.8804,1.8803,0,0,1.8834,1.883,1.8841,1.8843,1.8846,1.8864,1.8894,1.8909,1.8921,1.893,1.8953,1.8983,1.896,1.8969,1.8955,1.8978,1.9036,1.8951,1.8951,1.8965,1.9096,1.9112,1.9123,1.9022,1.9024,1.9025,1.9094,0,1.891,1.896,1.8942,1.8993,1.9014,1.8982,1.9007,1.9011,1.9005,1.9022,1.9015,1.9036,1.9006,1.901,1.9031,1.9025,1.9062,1.902,1.9043,1.9044,1.904,1.9135,1.9153,1.9219,1.9103,1.9105,1.9106,0,1.9006,1.9016,1.9069,1.9064,1.9072,1.9096,1.9106,1.9123,1.9126,1.912,1.9128,1.9109,1.9137,1.91,1.9138,1.9109,1.9118,1.9116,1.9118,1.9119,1.9078,1.9137,1.924,1.9249,1.912,1.9119,1.9118,0,1.9081,1.9109,1.9143,1.9146,1.9143,1.916,1.9159,1.916,1.9169,1.9179,1.9184,1.9198,1.9205,1.9215,1.9199,1.9175,1.9239,1.9201,1.9233,1.9234,1.9248,1.9247,1.9352,1.9256,1.9256,1.9255,1.9255,0,1.9168,1.9201,1.9176,1.9197,1.9233,1.9211,1.9247,1.9243,1.9243,1.9262,1.9236,1.9254,1.9233,1.925,1.9238,1.9269,1.9274,1.9268,1.9265,1.927,1.927,1.9274,1.9269,1.9258,1.9257,1.9257,1.9256,0,1.9258,1.9243,1.9278,1.9271,1.927,1.9296,1.9289,1.9308,1.9299,1.9324,1.9328,1.9314,1.9332,1.9317,1.9335,1.9327,1.9368,1.9359,1.9367,1.9364,1.9395,1.9392,1.9506,1.9518,1.9416,1.9417,1.9418,0,1.9313,1.9338,1.9332,1.9342,1.9342,1.936,1.9368,1.9347,1.9357,1.9361,1.9379,1.9394,1.9404,1.9434,1.9425,1.9438,1.9428,1.9467,1.943,1.9433,1.9426,1.9424,1.9425,1.9474,1.9475,1.9476,1.9477,0,1.9412,1.9403,1.9415,1.9425,1.9435,1.9442,1.9447,1.9457,1.9435,1.9448,1.9464,1.9472,1.9489,1.9503,1.9513,1.9512,1.9491,1.9489,1.9496,1.9501,1.9504,1.9501,1.9385,1.9486,1.9485,1.9484,1.9484,1.9484,1.9485,1.9504,1.9502,1.9516,1.9517,1.9522,1.9538,1.953,1.9543,1.9554,1.9541,1.9561,1.9561,1.9571,1.9572,1.9587,1.9571,1.9583,1.9586,1.9588,1.9592,1.9503,1.9589,1.9589,1.9589,1.9589,1.9588,0,1.9581,1.9577,1.959,1.9596,1.9607,1.9585,1.9588,1.9599,1.9616,1.9618,1.9628,1.9646,1.9659,1.9651,1.9662,1.9675,1.9666,1.9679,1.9677,1.9677,1.9607,1.9598,1.9686,1.9686,1.9686,1.9686,1.9686,1.9686,1.9632,1.9661,1.9651,1.968,1.9677,1.9695,1.9698,1.9701,1.9702,1.9723,1.9733,1.9727,1.9724,1.9734,1.9745,1.9742,1.9747,1.9763,1.9757,1.9692,1.9682,1.9673,1.9664,1.9765,1.9765,1.9825,1.9826,1.9826]},{"header":{"parameterUnit":"m.s-1","parameterCategory":1,"la1":30.2991,"la2":30.254,"lo1":-89.0895,"lo2":-89.0444,"dy":0.0017,"dx":0.0017,"nx":28,"ny":28,"refTime":"2023-08-12T09:00:00:Z","depth":0,"parameterNumber":3,"parameterNumberName":"V-component_of_WINDS"},"data":[0,0,0,0,0,0,0,0,0,0,0,0,0,0,0,0,0,0,0,0,0,0,0,0,0,0,0,0,0,0,0,0,0,0,0,0,0,0,0,0,0,0,0,0,0,0,0,0,0,0,0,0,0,0,0,0,0,0,5.525,5.5251,0,5.538,5.5381,5.5382,5.5359,5.5357,5.5355,5.5353,5.5475,5.548,5.5485,0,0,0,0,0,0,0,0,0,0,0,0,0,5.4971,5.4976,5.525,5.5251,5.5253,5.5379,5.5381,5.5383,5.536,5.5357,5.5354,5.5352,5.5473,5.548,5.5486,0,0,0,0,0,0,0,0,0,0,0,0,0,5.5095,5.4978,5.5249,5.5257,5.5259,5.5379,5.5381,5.5383,5.536,5.5357,5.5354,5.535,5.5471,5.5479,5.5487,5.5604,0,0,5.5511,5.5515,0,0,0,0,0,0,0,0,5.5088,5.5106,5.5254,5.5257,5.5259,5.535,5.5328,5.5457,5.5361,5.5321,5.5353,5.5349,5.5435,5.5446,5.5478,5.561,5.5615,5.5512,5.5517,5.552,5.5523,0,0,0,0,0,0,0,5.508,5.51,5.5301,5.5256,5.5259,5.525,5.5264,5.5352,5.5395,5.5325,5.5323,5.534,5.5436,5.547,5.548,5.5617,5.5512,5.5519,5.5524,5.5527,5.585,5.5854,0,0,0,0,0,0,5.507,5.5093,5.5297,5.5305,5.5164,5.5258,5.5274,5.5324,5.5395,5.5402,5.5342,5.5338,5.5458,5.5471,5.5484,5.5626,5.552,5.5528,5.5533,5.5846,5.5851,5.5855,0,0,0,0,0,0,5.5064,5.5089,5.5291,5.5199,5.5224,5.5267,5.5323,5.5328,5.5362,5.5408,5.5415,5.537,5.5456,5.5473,5.5575,5.5629,5.5532,5.5539,5.5842,5.5848,5.5853,5.5909,0,0,0,0,0,0,5.5057,5.5087,5.5134,5.52,5.5229,5.5383,5.5327,5.5333,5.5378,5.5373,5.5436,5.5442,5.5454,5.5563,5.5583,5.5639,5.5545,5.5837,5.5845,5.5851,5.5902,5.5916,5.5927,0,0,0,0,0,5.5047,5.5143,5.5137,5.5162,5.529,5.5386,5.5402,5.5417,5.5382,5.5428,5.5458,5.544,5.5621,5.5574,5.5596,5.5655,5.5834,5.5842,5.5851,5.5897,5.5913,5.5927,0,0,0,0,0,0,5.5079,5.5152,5.5146,5.5267,5.5321,5.5382,5.5441,5.5434,5.5497,5.5489,5.5502,5.5516,5.5619,5.5647,5.5594,5.5771,5.5722,5.5735,5.5749,5.5765,5.5778,5.5768,5.5552,0,0,0,0,0,5.5101,5.5177,5.5235,5.5336,5.5364,5.5398,5.5441,5.5448,5.5503,5.5524,5.5561,5.5612,5.568,5.5724,5.5789,5.5907,5.5918,5.5958,5.597,5.598,5.5991,5.6053,5.6071,5.5883,5.5883,5.5882,0,0,5.5145,5.5194,5.5241,5.5343,5.5386,5.5461,5.5417,5.5498,5.5553,5.5535,5.5635,5.5663,5.5721,5.5831,5.5881,5.5857,5.6046,5.5991,5.5999,5.6004,5.6064,5.6082,5.6098,5.5888,5.5887,5.5887,0,0,5.5264,5.5311,5.54,5.5444,5.5511,5.5533,5.5555,5.5618,5.5637,5.5738,5.5726,5.5789,5.5906,5.5948,5.5984,5.6119,5.6105,5.614,5.6204,5.6265,5.628,5.6293,5.6339,5.6356,5.6151,5.6151,5.6151,0,5.531,5.5427,5.5445,5.5528,5.5572,5.5564,5.5652,5.5693,5.5776,5.5805,5.5778,5.5925,5.5963,5.6082,5.6116,5.6146,5.6168,5.6132,5.6277,5.629,5.6303,5.6347,5.6365,5.6155,5.6154,5.6154,5.6154,0,5.5479,5.5559,5.5622,5.5707,5.5758,5.5843,5.5871,5.592,5.5923,5.5947,5.6048,5.6094,5.6168,5.6196,5.6198,5.6315,5.6298,5.6274,5.6224,5.6324,5.6366,5.6383,5.616,5.6159,5.6158,5.6157,0,0,5.562,5.5716,5.5738,5.5776,5.5849,5.591,5.5993,5.6069,5.611,5.6167,5.6235,5.6335,5.6314,5.6355,5.6361,5.6415,5.6517,5.6384,5.6385,5.6406,5.6646,5.6663,5.6683,5.6509,5.6512,5.6515,5.6641,0,5.5745,5.5897,5.5916,5.6049,5.6122,5.6115,5.6187,5.6238,5.6263,5.6325,5.6351,5.6421,5.6388,5.6413,5.6466,5.6494,5.6565,5.6485,5.6569,5.6572,5.6554,5.6705,5.6723,5.684,5.6658,5.666,5.6662,0,5.5911,5.5977,5.6119,5.6182,5.6213,5.6278,5.6349,5.641,5.6466,5.648,5.6527,5.6527,5.6609,5.6558,5.667,5.6615,5.665,5.6669,5.6674,5.668,5.6622,5.6714,5.6877,5.6894,5.6689,5.6687,5.6685,0,5.5998,5.6122,5.6223,5.6256,5.6332,5.6378,5.6411,5.6464,5.6509,5.6569,5.6597,5.6665,5.6702,5.6753,5.677,5.6731,5.688,5.6831,5.6891,5.6891,5.6922,5.6919,5.7091,5.6948,5.6947,5.6947,5.6947,0,5.6135,5.6221,5.6263,5.6325,5.642,5.644,5.6533,5.6563,5.6611,5.6675,5.6673,5.6732,5.6752,5.6814,5.6828,5.6917,5.6934,5.6945,5.6947,5.6945,5.6943,5.6966,5.6958,5.6952,5.6951,5.695,5.6949,0,5.6248,5.628,5.6389,5.6454,5.6472,5.6539,5.6592,5.665,5.6674,5.6756,5.6776,5.6813,5.6886,5.6909,5.6996,5.7005,5.7109,5.7105,5.7091,5.7091,5.715,5.7144,5.7342,5.7368,5.7209,5.721,5.7211,0,5.6332,5.6399,5.6472,5.6517,5.6553,5.6625,5.6671,5.6693,5.674,5.6809,5.6858,5.6931,5.6991,5.7108,5.714,5.7206,5.7202,5.7267,5.7212,5.7207,5.7201,5.7196,5.7202,5.7277,5.7278,5.728,5.7281,0,5.6478,5.6491,5.6559,5.6634,5.669,5.6748,5.6804,5.684,5.6869,5.6922,5.6999,5.7046,5.7136,5.7208,5.7276,5.7306,5.7297,5.7299,5.7316,5.7313,5.7302,5.7307,5.7118,5.7293,5.7292,5.7291,5.729,5.729,5.6577,5.6636,5.6697,5.6773,5.6819,5.6871,5.6929,5.6962,5.7028,5.7106,5.7113,5.7196,5.7249,5.7339,5.7373,5.7435,5.7416,5.7441,5.7447,5.7453,5.7457,5.7294,5.7448,5.7447,5.7447,5.7447,5.7446,0,5.6721,5.6761,5.6831,5.6912,5.6971,5.6963,5.7024,5.7073,5.7147,5.7199,5.7259,5.7346,5.7416,5.7455,5.7524,5.7566,5.7563,5.7583,5.7579,5.7585,5.7471,5.7449,5.7584,5.7584,5.7583,5.7583,5.7583,5.7583,5.6803,5.6902,5.6922,5.7042,5.708,5.7164,5.7199,5.7247,5.7289,5.7388,5.7447,5.7474,5.7519,5.7592,5.7654,5.7663,5.7688,5.7709,5.7716,5.7608,5.7594,5.758,5.7559,5.7715,5.7715,5.7825,5.7826,5.7827]}]]